Satellite: NOAA-11
Catalog number: 19531
Epoch time:      10090.31266795
Element set:      25
Inclination:      098.7680 deg
RA of node:       180.6637 deg
Eccentricity:    0.0011989
Arg of perigee:   013.7378 deg
Mean anomaly:     346.4141 deg
Mean motion:   14.14918583 rev/day
Decay rate:       -2.2e-07 rev/day^2
Epoch rev:           11012
Checksum:              291

Satellite: NOAA-12
Catalog number: 21263
Epoch time:      10090.37664408
Element set:     510
Inclination:      098.7690 deg
RA of node:       103.5372 deg
Eccentricity:    0.0013039
Arg of perigee:   036.4578 deg
Mean anomaly:     323.7488 deg
Mean motion:   14.25625069 rev/day
Decay rate:        6.8e-07 rev/day^2
Epoch rev:           98131
Checksum:              302

Satellite: MET-3/5
Catalog number: 21655
Epoch time:      10090.23613236
Element set:     774
Inclination:      082.5624 deg
RA of node:       003.7089 deg
Eccentricity:    0.0013350
Arg of perigee:   178.4272 deg
Mean anomaly:     181.6814 deg
Mean motion:   13.17023702 rev/day
Decay rate:        5.1e-07 rev/day^2
Epoch rev:           89541
Checksum:              277

Satellite: MET-2/21
Catalog number: 22782
Epoch time:      10090.33742219
Element set:     735
Inclination:      082.5481 deg
RA of node:       314.2170 deg
Eccentricity:    0.0020826
Arg of perigee:   261.1298 deg
Mean anomaly:     098.7509 deg
Mean motion:   13.83643028 rev/day
Decay rate:        2.3e-07 rev/day^2
Epoch rev:           83731
Checksum:              289

Satellite: OKEAN-4
Catalog number: 23317
Epoch time:      10090.11104678
Element set:     192
Inclination:      082.5373 deg
RA of node:       066.7274 deg
Eccentricity:    0.0023346
Arg of perigee:   135.7046 deg
Mean anomaly:     224.6036 deg
Mean motion:   14.82788720 rev/day
Decay rate:       3.25e-06 rev/day^2
Epoch rev:           83488
Checksum:              295

Satellite: NOAA-14
Catalog number: 23455
Epoch time:      10090.36412127
Element set:       2
Inclination:      098.8800 deg
RA of node:       171.6404 deg
Eccentricity:    0.0010296
Arg of perigee:   095.4992 deg
Mean anomaly:     264.7345 deg
Mean motion:   14.13781807 rev/day
Decay rate:       -1.5e-07 rev/day^2
Epoch rev:           78650
Checksum:              289

Satellite: NOAA-15
Catalog number: 25338
Epoch time:      10090.34576899
Element set:     322
Inclination:      098.6142 deg
RA of node:       078.6868 deg
Eccentricity:    0.0009802
Arg of perigee:   305.5153 deg
Mean anomaly:     054.5119 deg
Mean motion:   14.24815829 rev/day
Decay rate:       2.00e-06 rev/day^2
Epoch rev:           61766
Checksum:              316

Satellite: RESURS
Catalog number: 25394
Epoch time:      10090.08373859
Element set:     466
Inclination:      098.3112 deg
RA of node:       112.3969 deg
Eccentricity:    0.0002437
Arg of perigee:   087.6234 deg
Mean anomaly:     272.5231 deg
Mean motion:   14.24196775 rev/day
Decay rate:        1.9e-07 rev/day^2
Epoch rev:           60923
Checksum:              301

Satellite: FENGYUN1
Catalog number: 25730
Epoch time:      10089.93578818
Element set:       7
Inclination:      098.7814 deg
RA of node:       056.9383 deg
Eccentricity:    0.0024167
Arg of perigee:   126.0380 deg
Mean anomaly:     234.2992 deg
Mean motion:   14.08206132 rev/day
Decay rate:       6.42e-06 rev/day^2
Epoch rev:           56067
Checksum:              306

Satellite: OKEAN-0
Catalog number: 25860
Epoch time:      10090.39845907
Element set:     953
Inclination:      097.8246 deg
RA of node:       065.7735 deg
Eccentricity:    0.0001211
Arg of perigee:   049.2273 deg
Mean anomaly:     310.9039 deg
Mean motion:   14.73626496 rev/day
Decay rate:       1.04e-06 rev/day^2
Epoch rev:           57544
Checksum:              307

Satellite: NOAA-16
Catalog number: 26536
Epoch time:      10090.38123681
Element set:     798
Inclination:      099.1743 deg
RA of node:       106.0017 deg
Eccentricity:    0.0010440
Arg of perigee:   191.3715 deg
Mean anomaly:     168.7258 deg
Mean motion:   14.12552864 rev/day
Decay rate:       2.96e-06 rev/day^2
Epoch rev:           49084
Checksum:              306

Satellite: NOAA-17
Catalog number: 27453
Epoch time:      10090.43233288
Element set:     804
Inclination:      098.4402 deg
RA of node:       143.9757 deg
Eccentricity:    0.0011897
Arg of perigee:   009.9292 deg
Mean anomaly:     350.2122 deg
Mean motion:   14.24144119 rev/day
Decay rate:       1.00e-06 rev/day^2
Epoch rev:           40363
Checksum:              277

Satellite: NOAA-18
Catalog number: 28654
Epoch time:      10090.38849184
Element set:     288
Inclination:      098.9430 deg
RA of node:       036.9033 deg
Eccentricity:    0.0013513
Arg of perigee:   273.7457 deg
Mean anomaly:     086.2167 deg
Mean motion:   14.11342353 rev/day
Decay rate:       1.42e-06 rev/day^2
Epoch rev:           25046
Checksum:              303

Satellite: NOAA-19
Catalog number: 33591
Epoch time:      10090.35964036
Element set:     487
Inclination:      098.7825 deg
RA of node:       034.1594 deg
Eccentricity:    0.0014480
Arg of perigee:   146.2198 deg
Mean anomaly:     213.9899 deg
Mean motion:   14.11036980 rev/day
Decay rate:      -1.99e-06 rev/day^2
Epoch rev:            5893
Checksum:              338

/EX
SB KEPS @ AMSAT  $ORB10090.M
Orbital Elements  10090.MISC

HR AMSAT ORBITAL ELEMENTS FOR MANNED AND MISCELLANEOUS SATELLITES
FROM WA5QGD FORT WORTH,TX March 31, 2010
Send Subscribe/unsubscribe to KEPS at http://www.amsat.org/mailman/listinfo/keps
BID: ORB10090.M
TO ALL RADIO AMATEURS BT

Satellite: HUBBLE
Catalog number: 20580
Epoch time:      10089.98482348
Element set:     542
Inclination:      028.4701 deg
RA of node:       030.3706 deg
Eccentricity:    0.0003544
Arg of perigee:   093.0753 deg
Mean anomaly:     267.0268 deg
Mean motion:   15.00934738 rev/day
Decay rate:       6.07e-06 rev/day^2
Epoch rev:           89299
Checksum:              304

Satellite: ISS
Catalog number: 25544
Epoch time:      10090.87180706
Element set:     881
Inclination:      051.6441 deg
RA of node:       267.5162 deg
Eccentricity:    0.0006494
Arg of perigee:   125.0176 deg
Mean anomaly:     029.9676 deg
Mean motion:   15.74110583 rev/day
Decay rate:     2.1517e-04 rev/day^2
Epoch rev:           65129
Checksum:              299

Satellite: CO-58
Catalog number: 28895
Epoch time:      10089.70952284
Element set:     548
Inclination:      098.0261 deg
RA of node:       336.7402 deg
Eccentricity:    0.0018122
Arg of perigee:   167.7609 deg
Mean anomaly:     192.4023 deg
Mean motion:   14.59865790 rev/day
Decay rate:        3.7e-07 rev/day^2
Epoch rev:           23553
Checksum:              332

Satellite: FALCON
Catalog number: 30776
Epoch time:      10090.19522625
Element set:     796
Inclination:      035.4328 deg
RA of node:       157.7646 deg
Eccentricity:    0.0001341
Arg of perigee:   272.5616 deg
Mean anomaly:     087.4947 deg
Mean motion:   15.03557760 rev/day
Decay rate:      1.006e-05 rev/day^2
Epoch rev:           16831
Checksum:              298

Satellite: MAST
Catalog number: 31126
Epoch time:      10089.74863598
Element set:     829
Inclination:      097.9455 deg
RA of node:       135.7831 deg
Eccentricity:    0.0095854
Arg of perigee:   109.7464 deg
Mean anomaly:     251.4107 deg
Mean motion:   14.53567513 rev/day
Decay rate:       -7.6e-07 rev/day^2
Epoch rev:           15666
Checksum:              337

Satellite: CAPE1
Catalog number: 31130
Epoch time:      10090.13761218
Element set:     850
Inclination:      097.9485 deg
RA of node:       133.7183 deg
Eccentricity:    0.0103883
Arg of perigee:   115.9856 deg
Mean anomaly:     245.2143 deg
Mean motion:   14.52153784 rev/day
Decay rate:       2.10e-06 rev/day^2
Epoch rev:           15633
Checksum:              278

Satellite: COMPASS
Catalog number: 32787
Epoch time:      10090.31321154
Element set:     633
Inclination:      097.9003 deg
RA of node:       156.1190 deg
Eccentricity:    0.0015859
Arg of perigee:   175.0342 deg
Mean anomaly:     185.1020 deg
Mean motion:   14.81807145 rev/day
Decay rate:       4.21e-06 rev/day^2
Epoch rev:           10396
Checksum:              261

Satellite: AAUSAT2
Catalog number: 32788
Epoch time:      10089.91856669
Element set:     627
Inclination:      097.9063 deg
RA of node:       155.8429 deg
Eccentricity:    0.0015956
Arg of perigee:   175.7947 deg
Mean anomaly:     184.3383 deg
Mean motion:   14.81942520 rev/day
Decay rate:        3.0e-07 rev/day^2
Epoch rev:           10391
Checksum:              340

Satellite: DO-64
Catalog number: 32789
Epoch time:      10090.33905781
Element set:     643
Inclination:      097.9075 deg
RA of node:       156.6456 deg
Eccentricity:    0.0016204
Arg of perigee:   173.9957 deg
Mean anomaly:     186.1468 deg
Mean motion:   14.82041782 rev/day
Decay rate:       9.44e-06 rev/day^2
Epoch rev:           10397
Checksum:              340

Satellite: CO-66
Catalog number: 32791
Epoch time:      10089.71626988
Element set:     623
Inclination:      097.9024 deg
RA of node:       155.5535 deg
Eccentricity:    0.0015743
Arg of perigee:   175.6047 deg
Mean anomaly:     184.5286 deg
Mean motion:   14.81603640 rev/day
Decay rate:       2.06e-06 rev/day^2
Epoch rev:           10383
Checksum:              320

Satellite: RS-30
Catalog number: 32953
Epoch time:      10090.45695183
Element set:     561
Inclination:      082.4967 deg
RA of node:       078.0121 deg
Eccentricity:    0.0017343
Arg of perigee:   273.6152 deg
Mean anomaly:     086.2954 deg
Mean motion:   12.43004618 rev/day
Decay rate:        1.0e-07 rev/day^2
Epoch rev:            8408
Checksum:              282

